Location: Liberec
(50.7830°N, 15.0500°E)
Time: 00:49:00
(UTC+02:00)

ISS - Visible Passes

Search period start: 06 May 2021 00:00
Search period end: 16 May 2021 00:00
Orbit: 418 x 421 km, 51.6° (Epoch: 05 May)

Date Brightness Start Highest point End Pass type
(mag) Time Alt. Az. Time Alt. Az. Time Alt. Az.
06 May -3.5 02:48:20 51° SSE 02:48:20 51° SSE 02:51:36 10° E visible
06 May -3.6 04:21:42 10° W 04:25:04 76° N 04:28:28 10° E visible
07 May -2.0 02:02:24 24° E 02:02:24 24° E 02:04:07 10° E visible
07 May -3.7 03:35:20 19° W 03:37:37 83° N 03:41:02 10° E visible
08 May -0.9 01:16:27 10° E 01:16:27 10° E 01:16:33 10° E visible
08 May -3.9 02:49:24 50° WSW 02:50:11 85° SSE 02:53:35 10° ENE visible
08 May -3.6 04:23:41 10° W 04:27:05 77° N 04:30:28 10° E visible
09 May -3.3 02:03:25 51° E 02:03:25 51° E 02:06:07 10° ENE visible
09 May -3.6 03:36:21 11° W 03:39:37 74° N 03:43:00 10° E visible
10 May -1.7 01:17:25 20° E 01:17:25 20° E 01:18:41 10° E visible
10 May -3.7 02:50:21 26° W 02:52:09 76° N 02:55:32 10° E visible
10 May -3.8 04:25:39 10° WNW 04:29:02 81° SSW 04:32:25 10° ESE visible
11 May -3.8 02:04:19 68° W 02:04:41 83° N 02:08:04 10° E visible
11 May -3.7 03:38:11 10° WNW 03:41:35 86° N 03:44:59 10° E visible
12 May -2.9 01:18:13 43° E 01:18:13 43° E 01:20:37 10° ENE visible
12 May -3.7 02:51:09 13° W 02:54:07 77° N 02:57:31 10° E visible
12 May -3.5 04:27:37 10° W 04:30:52 47° SSW 04:34:08 10° SE visible
13 May -1.7 00:32:04 19° E 00:32:04 19° E 00:33:10 10° ENE visible
13 May -3.6 02:04:58 27° W 02:06:39 74° N 02:10:02 10° E visible
13 May -3.8 03:40:08 10° WNW 03:43:29 63° SSW 03:46:50 10° ESE visible
13 May -1.0 23:45:40 10° E 23:45:40 10° E 23:45:41 10° E visible
14 May -3.7 01:18:33 55° WNW 01:19:10 76° N 01:22:33 10° E visible
14 May -3.9 02:52:40 10° WNW 02:56:03 80° SSW 02:59:26 10° ESE visible
14 May -2.6 04:29:45 10° W 04:32:34 24° SW 04:35:22 10° SSE visible
14 May -3.3 22:51:51 10° SW 22:55:01 38° SSE 22:58:10 10° E visible
15 May -3.8 00:28:18 10° W 00:31:41 83° N 00:35:05 10° E visible
15 May -3.8 02:05:12 10° WNW 02:08:36 86° N 02:11:59 10° E visible
15 May -3.1 03:42:08 10° W 03:45:14 34° SSW 03:48:20 10° SE visible
15 May -2.8 22:04:46 10° SSW 22:07:40 27° SSE 22:10:35 10° E visible
15 May -3.9 23:40:50 10° WSW 23:44:13 85° SSE 23:47:36 10° ENE visible
